sat.trackr.live / text

‹ back to catalog

STARLINK-37092

NORAD 68240 · 2026-054J

PAYLOAD ACTIVE UNKNOWN

§ Identity

Operator
Country
US
Launch date
2026-03-17
Launch site
AFETR
Launch vehicle
Mass (kg)
RCS (m²)

Purposes: comms

External: N2YO · Heavens-Above · Gunter

§ Orbital elements

Epoch: 2026-09-20T00:02:18.269376Z

Period
93.85 min
Inclination
53.1575°
Eccentricity
0.0001476
Mean motion
15.34409623 rev/d
Perigee alt
461.7 km
Apogee alt
463.7 km
Semi-major
6,840.8 km
B*
5.3085e-4
RAAN
104.2551°
Arg perigee
81.1942°
Mean anomaly
278.9228°
Rev number
2,888

§ Raw data

STARLINK-370921 68240U 26054J   26263.00160034  .00017607  00000+0  53085-3 0  99942 68240  53.1575 104.2551 0001476  81.1942 278.9228 15.34409623 28880

JSON: /api/v1/satellites/68240 · /tle

For live sub-satellite position, see the globe view (requires WebGL).

§ Visibility from observer

Set your observer location to see the next 7 days of passes ≥ 10°. The values pass through the URL so the page stays shareable.

No JS? Fill the form by hand. The geolocation button needs JavaScript.